Weather History for Shenandoah, IA

Change the Weather History Date:

Saturday, April 19, 2014

  Actual Average Record
Temperature  
Mean Temperature 66 °F -  
Max Temperature 80 °F 66 °F 86 °F (1955)
Min Temperature 51 °F 43 °F 25 °F (1953)
Growing Degree Days 16 (Base 50)    
Moisture  
Dew Point 43 °F    
Average Humidity 45    
Maximum Humidity 67    
Minimum Humidity 26    
Precipitation  
Precipitation 0.00 in - - ()
Sea Level Pressure  
Sea Level Pressure 30.06 in    
Wind  
Wind Speed 17 mph (SSE)    
Max Wind Speed 26 mph    
Max Gust Speed 34 mph    
Visibility 10 miles    
Events      
Averages and records for this station are not official NWS values.
T = Trace of Precipitation, MM = Missing Value Source: NWS Daily Summary

Daily Weather History Graph

Daily Weather History Graph

Search for Another Location

Airport:

Trip Planner

Search our weather history database for the weather conditions in past years. The results will help you decide how hot, cold, wet, or windy it might be!

Date:

Astronomy

Apr. 19, 2014 Rise Set
Actual Time 6:36 AM CDT 8:05 PM CDT
Civil Twilight 6:08 AM CDT 8:34 PM CDT
Nautical Twilight 5:33 AM CDT 9:08 PM CDT
Astronomical Twilight 4:57 AM CDT 9:45 PM CDT
Moon No Moon Rise 9:55 AM CDT (4/19)
Length of Visible Light 14h 26m
Length of Day
13h 28m
Waning Gibbous, 78% of the Moon is Illuminated
Apr 19
Waning Gibbous
Apr 22
Last Quarter
Apr 29
New
May 6
First Quarter
May 14
Full

Hourly Weather History & Observations

Time (CDT) Temp. Dew Point Humidity Pressure Visibility Wind Dir Wind Speed Gust Speed Precip Events Conditions
12:15 AM 53.6 °F 41.0 °F 62% 30.14 in 10.0 mi SSE 12.7 mph - N/A   Mostly Cloudy
12:35 AM 53.6 °F 41.0 °F 62% 30.14 in 10.0 mi SSE 12.7 mph - N/A   Mostly Cloudy
12:55 AM 53.6 °F 41.0 °F 62% 30.14 in 10.0 mi SSE 15.0 mph - N/A   Overcast
1:15 AM 53.6 °F 41.0 °F 62% 30.14 in 10.0 mi SSE 13.8 mph - N/A   Mostly Cloudy
1:35 AM 53.6 °F 41.0 °F 62% 30.13 in 10.0 mi SSE 13.8 mph 20.7 mph N/A   Scattered Clouds
1:55 AM 53.6 °F 41.0 °F 62% 30.12 in 10.0 mi SSE 15.0 mph - N/A   Partly Cloudy
2:15 AM 53.6 °F 41.0 °F 62% 30.12 in 10.0 mi SSE 15.0 mph - N/A   Scattered Clouds
2:35 AM 53.6 °F 41.0 °F 62% 30.11 in 10.0 mi SSE 13.8 mph - N/A   Scattered Clouds
2:55 AM 53.6 °F 42.8 °F 67% 30.11 in 10.0 mi SSE 16.1 mph - N/A   Mostly Cloudy
3:15 AM 53.6 °F 42.8 °F 67% 30.10 in 10.0 mi SSE 17.3 mph - N/A   Partly Cloudy
3:35 AM 53.6 °F 42.8 °F 67% 30.10 in 10.0 mi SSE 17.3 mph - N/A   Partly Cloudy
3:55 AM 53.6 °F 41.0 °F 62% 30.09 in 10.0 mi SSE 17.3 mph - N/A   Partly Cloudy
4:15 AM 53.6 °F 41.0 °F 62% 30.09 in 10.0 mi SSE 17.3 mph - N/A   Clear
4:35 AM 53.6 °F 41.0 °F 62% 30.09 in 10.0 mi SSE 18.4 mph 24.2 mph N/A   Clear
4:55 AM 53.6 °F 41.0 °F 62% 30.08 in 10.0 mi SSE 18.4 mph 25.3 mph N/A   Clear
5:15 AM 53.6 °F 41.0 °F 62% 30.08 in 10.0 mi SSE 18.4 mph 25.3 mph N/A   Clear
5:35 AM 53.6 °F 41.0 °F 62% 30.08 in 10.0 mi SSE 17.3 mph - N/A   Clear
5:55 AM 53.6 °F 41.0 °F 62% 30.09 in 10.0 mi SSE 16.1 mph 23.0 mph N/A   Clear
6:15 AM 51.8 °F 41.0 °F 67% 30.09 in 10.0 mi SSE 16.1 mph 23.0 mph N/A   Clear
6:35 AM 51.8 °F 41.0 °F 67% 30.10 in 10.0 mi SSE 13.8 mph 19.6 mph N/A   Clear
6:55 AM 51.8 °F 41.0 °F 67% 30.10 in 10.0 mi SSE 13.8 mph - N/A   Partly Cloudy
7:15 AM 51.8 °F 41.0 °F 67% 30.10 in 10.0 mi SSE 15.0 mph - N/A   Scattered Clouds
7:35 AM 51.8 °F 41.0 °F 67% 30.10 in 10.0 mi SSE 15.0 mph - N/A   Partly Cloudy
7:55 AM 53.6 °F 41.0 °F 62% 30.10 in 10.0 mi SSE 13.8 mph - N/A   Clear
8:15 AM 57.2 °F 42.8 °F 59% 30.10 in 10.0 mi SSE 15.0 mph - N/A   Clear
8:35 AM 59.0 °F 42.8 °F 55% 30.10 in 10.0 mi SSE 16.1 mph - N/A   Clear
8:55 AM 60.8 °F 42.8 °F 52% 30.10 in 10.0 mi South 15.0 mph 23.0 mph N/A   Clear
9:15 AM 62.6 °F 42.8 °F 48% 30.10 in 10.0 mi South 18.4 mph - N/A   Clear
9:35 AM 64.4 °F 42.8 °F 45% 30.11 in 10.0 mi South 18.4 mph - N/A   Clear
9:55 AM 66.2 °F 42.8 °F 43% 30.11 in 10.0 mi South 18.4 mph - N/A   Clear
10:15 AM 68.0 °F 42.8 °F 40% 30.11 in 10.0 mi South 18.4 mph 25.3 mph N/A   Clear
10:35 AM 69.8 °F 42.8 °F 38% 30.11 in 10.0 mi SSW 19.6 mph 26.5 mph N/A   Clear
10:55 AM 71.6 °F 42.8 °F 35% 30.11 in - South 20.7 mph 26.5 mph N/A   Clear
11:15 AM 71.6 °F 42.8 °F 35% 30.09 in 10.0 mi South 21.9 mph 32.2 mph N/A   Clear
11:35 AM 73.4 °F 42.8 °F 33% 30.09 in 10.0 mi SSW 23.0 mph - N/A   Clear
11:55 AM 75.2 °F 42.8 °F 31% 30.08 in 10.0 mi South 26.5 mph - N/A   Clear
12:15 PM 75.2 °F 42.8 °F 31% 30.08 in 10.0 mi South 24.2 mph 34.5 mph N/A   Clear
12:35 PM 75.2 °F 42.8 °F 31% 30.07 in 10.0 mi South 21.9 mph 34.5 mph N/A   Clear
12:55 PM 75.2 °F 42.8 °F 31% 30.06 in 10.0 mi South 21.9 mph 32.2 mph N/A   Clear
1:15 PM 77.0 °F 42.8 °F 29% 30.04 in 10.0 mi South 24.2 mph 31.1 mph N/A   Clear
1:35 PM 77.0 °F 42.8 °F 29% 30.05 in 10.0 mi South 23.0 mph 32.2 mph N/A   Clear
1:55 PM 77.0 °F 42.8 °F 29% 30.04 in 10.0 mi South 18.4 mph 31.1 mph N/A   Clear
2:15 PM 78.8 °F 42.8 °F 28% 30.03 in 10.0 mi South 24.2 mph 31.1 mph N/A   Clear
2:35 PM 78.8 °F 42.8 °F 28% 30.03 in 10.0 mi South 20.7 mph 31.1 mph N/A   Clear
2:55 PM 78.8 °F 42.8 °F 28% 30.03 in 10.0 mi SSE 21.9 mph 31.1 mph N/A   Clear
3:15 PM 78.8 °F 42.8 °F 28% 30.02 in 10.0 mi South 20.7 mph 32.2 mph N/A   Partly Cloudy
3:35 PM 78.8 °F 42.8 °F 28% 30.01 in 10.0 mi South 23.0 mph 34.5 mph N/A   Clear
3:55 PM 80.6 °F 42.8 °F 26% 30.01 in 10.0 mi South 21.9 mph 32.2 mph N/A   Clear
4:15 PM 80.6 °F 42.8 °F 26% 30.00 in 10.0 mi South 24.2 mph 33.4 mph N/A   Scattered Clouds
4:35 PM 78.8 °F 44.6 °F 30% 30.00 in 10.0 mi South 24.2 mph 31.1 mph N/A   Scattered Clouds
4:55 PM 80.6 °F 44.6 °F 28% 30.00 in 10.0 mi South 19.6 mph 34.5 mph N/A   Scattered Clouds
5:15 PM 80.6 °F 42.8 °F 26% 29.99 in 10.0 mi South 24.2 mph 32.2 mph N/A   Partly Cloudy
5:35 PM 78.8 °F 42.8 °F 28% 30.00 in 10.0 mi South 20.7 mph 31.1 mph N/A   Clear
5:55 PM 78.8 °F 42.8 °F 28% 29.99 in 10.0 mi South 20.7 mph 28.8 mph N/A   Clear
6:15 PM 78.8 °F 42.8 °F 28% 29.99 in 10.0 mi South 24.2 mph 29.9 mph N/A   Clear
6:35 PM 77.0 °F 42.8 °F 29% 29.99 in 10.0 mi South 20.7 mph 29.9 mph N/A   Clear
6:55 PM 77.0 °F 42.8 °F 29% 30.00 in 10.0 mi South 17.3 mph - N/A   Mostly Cloudy
7:15 PM 75.2 °F 44.6 °F 34% 30.00 in 10.0 mi South 16.1 mph - N/A   Mostly Cloudy
7:35 PM 73.4 °F 44.6 °F 36% 30.01 in 10.0 mi South 15.0 mph - N/A   Scattered Clouds
7:55 PM 73.4 °F 44.6 °F 36% 30.01 in 10.0 mi South 13.8 mph - N/A   Partly Cloudy
8:15 PM 71.6 °F 44.6 °F 38% 30.01 in 10.0 mi South 15.0 mph - N/A   Partly Cloudy
8:35 PM 69.8 °F 44.6 °F 40% 30.02 in 10.0 mi SSE 12.7 mph - N/A   Partly Cloudy
8:55 PM 69.8 °F 44.6 °F 40% 30.02 in 10.0 mi South 15.0 mph - N/A   Clear
9:15 PM 68.0 °F 44.6 °F 43% 30.03 in 10.0 mi SSE 12.7 mph - N/A   Clear
9:35 PM 68.0 °F 44.6 °F 43% 30.04 in 10.0 mi SSE 13.8 mph - N/A   Partly Cloudy
9:55 PM 68.0 °F 44.6 °F 43% 30.04 in 10.0 mi SSE 12.7 mph - N/A   Mostly Cloudy
10:15 PM 66.2 °F 44.6 °F 46% 30.05 in 10.0 mi SE 11.5 mph - N/A   Overcast
10:35 PM 66.2 °F 44.6 °F 46% 30.04 in 10.0 mi SE 10.4 mph - N/A   Mostly Cloudy
10:55 PM 64.4 °F 44.6 °F 49% 30.04 in 10.0 mi SSE 12.7 mph - N/A   Partly Cloudy
11:15 PM 64.4 °F 44.6 °F 49% 30.04 in 10.0 mi SSE 10.4 mph - N/A   Clear
11:35 PM 66.2 °F 44.6 °F 46% 30.04 in 10.0 mi SSE 11.5 mph - N/A   Clear
11:55 PM 66.2 °F 44.6 °F 46% 30.04 in 10.0 mi South 13.8 mph - N/A   Clear